Weather History for Richmond, KY

Change the Weather History Date:

Saturday, March 15, 2014

  Actual Average (KLOZ) Record (KLOZ)
Temperature  
Mean Temperature 52 °F 47 °F  
Max Temperature 62 °F 58 °F 84 °F (1977)
Min Temperature 42 °F 36 °F 1 °F (1993)
Degree Days  
Heating Degree Days 13 18  
Month to date heating degree days 299  
Since 1 July heating degree days 3575  
Cooling Degree Days 0 0  
Month to date cooling degree days 0  
Year to date cooling degree days 0  
Growing Degree Days 2 (Base 50)    
Moisture  
Dew Point 29 °F    
Average Humidity 42    
Maximum Humidity 70    
Minimum Humidity 22    
Precipitation  
Precipitation 0.00 in 0.13 in 0.99 in (1982)
Month to date precipitation 1.96  
Year to date precipitation 9.21  
Sea Level Pressure  
Sea Level Pressure 30.04 in    
Wind  
Wind Speed 9 mph (WSW)    
Max Wind Speed 15 mph    
Max Gust Speed 22 mph    
Visibility 10 miles    
Events      
T = Trace of Precipitation, MM = Missing Value Source: NWS Daily Summary

Daily Weather History Graph

Daily Weather History Graph

Search for Another Location

Airport:

Trip Planner

Search our weather history database for the weather conditions in past years. The results will help you decide how hot, cold, wet, or windy it might be!

Date:

Astronomy

Mar. 15, 2014 Rise Set
Actual Time 7:48 AM EDT 7:44 PM EDT
Civil Twilight 7:22 AM EDT 8:10 PM EDT
Nautical Twilight 6:51 AM EDT 8:41 PM EDT
Astronomical Twilight 6:21 AM EDT 9:11 PM EDT
Moon 7:03 PM EDT (3/15) 6:59 AM EDT (3/15)
Length of Visible Light 12h 48m
Length of Day
11h 56m
Waxing Gibbous, 99% of the Moon is Illuminated
Mar 15
Waxing Gibbous
Mar 16
Full
Mar 23
Last Quarter
Mar 30
New
Apr 7
First Quarter

Hourly Weather History & Observations

Time (EDT) Temp. Windchill Dew Point Humidity Pressure Visibility Wind Dir Wind Speed Gust Speed Precip Events Conditions
12:15 AM 55.4 °F - 32.0 °F 41% 29.97 in 10.0 mi WSW 12.7 mph 21.9 mph N/A   Overcast
12:35 AM 55.4 °F - 32.0 °F 41% 29.98 in 10.0 mi WSW 9.2 mph - N/A   Overcast
12:55 AM 53.6 °F - 32.0 °F 44% 29.98 in 10.0 mi WSW 13.8 mph 20.7 mph N/A   Scattered Clouds
1:15 AM 53.6 °F - 32.0 °F 44% 29.98 in 10.0 mi WSW 11.5 mph 19.6 mph N/A   Clear
1:35 AM 53.6 °F - 32.0 °F 44% 29.98 in 10.0 mi WSW 15.0 mph 21.9 mph N/A   Clear
1:55 AM 53.6 °F - 32.0 °F 44% 29.98 in 10.0 mi WSW 12.7 mph 20.7 mph N/A   Scattered Clouds
2:15 AM 51.8 °F - 32.0 °F 47% 29.98 in 10.0 mi WSW 13.8 mph - N/A   Scattered Clouds
2:35 AM 51.8 °F - 32.0 °F 47% 29.98 in 10.0 mi WSW 13.8 mph 19.6 mph N/A   Mostly Cloudy
2:55 AM 51.8 °F - 32.0 °F 47% 29.98 in 10.0 mi WSW 11.5 mph 18.4 mph N/A   Overcast
3:15 AM 51.8 °F - 32.0 °F 47% 29.99 in 10.0 mi WSW 12.7 mph - N/A   Mostly Cloudy
3:35 AM 50.0 °F - 32.0 °F 50% 29.99 in 10.0 mi WSW 12.7 mph - N/A   Scattered Clouds
3:55 AM 50.0 °F - 32.0 °F 50% 29.99 in 10.0 mi WSW 10.4 mph - N/A   Scattered Clouds
4:15 AM 50.0 °F - 33.8 °F 54% 29.99 in 10.0 mi West 10.4 mph - N/A   Mostly Cloudy
4:35 AM 50.0 °F - 33.8 °F 54% 29.99 in 10.0 mi WSW 11.5 mph 18.4 mph N/A   Mostly Cloudy
4:55 AM 48.2 °F - 33.8 °F 58% 29.99 in 10.0 mi WSW 9.2 mph - N/A   Scattered Clouds
5:15 AM 48.2 °F - 33.8 °F 58% 30.00 in 10.0 mi WSW 9.2 mph 16.1 mph N/A   Mostly Cloudy
5:35 AM 48.2 °F - 33.8 °F 58% 30.01 in 10.0 mi WSW 9.2 mph - N/A   Scattered Clouds
5:55 AM 46.4 °F 42.4 °F 33.8 °F 62% 30.01 in 10.0 mi WSW 8.1 mph - N/A   Clear
6:15 AM 46.4 °F 42.4 °F 33.8 °F 62% 30.02 in 10.0 mi WSW 8.1 mph - N/A   Clear
6:35 AM 44.6 °F 40.7 °F 33.8 °F 66% 30.02 in 10.0 mi WSW 6.9 mph - N/A   Clear
6:55 AM 44.6 °F 40.7 °F 33.8 °F 66% 30.03 in 10.0 mi SW 6.9 mph - N/A   Clear
7:15 AM 44.6 °F 40.2 °F 33.8 °F 66% 30.03 in 10.0 mi WSW 8.1 mph - N/A   Clear
7:35 AM 44.6 °F 40.7 °F 33.8 °F 66% 30.05 in 10.0 mi WSW 6.9 mph - N/A   Clear
7:55 AM 42.8 °F 38.6 °F 33.8 °F 70% 30.05 in 10.0 mi WSW 6.9 mph - N/A   Clear
8:15 AM 42.8 °F 38.6 °F 33.8 °F 70% 30.06 in 10.0 mi WSW 6.9 mph - N/A   Clear
8:35 AM 42.8 °F 38.6 °F 33.8 °F 70% 30.07 in 10.0 mi WSW 6.9 mph - N/A   Clear
8:55 AM 44.6 °F 41.4 °F 33.8 °F 66% 30.07 in 10.0 mi WSW 5.8 mph - N/A   Clear
9:15 AM 46.4 °F 42.9 °F 33.8 °F 62% 30.08 in 10.0 mi SW 6.9 mph - N/A   Clear
9:35 AM 46.4 °F 42.9 °F 35.6 °F 66% 30.09 in 10.0 mi WSW 6.9 mph - N/A   Clear
9:55 AM 48.2 °F - 35.6 °F 62% 30.10 in 10.0 mi West 6.9 mph - N/A   Clear
10:15 AM 50.0 °F - 35.6 °F 58% 30.10 in 10.0 mi SW 8.1 mph - N/A   Clear
10:35 AM 50.0 °F - 32.0 °F 50% 30.10 in 10.0 mi West 4.6 mph - N/A   Clear
10:55 AM 51.8 °F - 28.4 °F 41% 30.11 in 10.0 mi Calm Calm - N/A   Clear
11:15 AM 51.8 °F - 30.2 °F 44% 30.11 in 10.0 mi WSW 5.8 mph - N/A   Clear
11:35 AM 53.6 °F - 26.6 °F 35% 30.12 in 10.0 mi WNW 4.6 mph - N/A   Clear
11:55 AM 53.6 °F - 26.6 °F 35% 30.12 in 10.0 mi WNW 6.9 mph - N/A   Clear
12:15 PM 55.4 °F - 26.6 °F 33% 30.12 in 10.0 mi West 6.9 mph - N/A   Clear
12:35 PM 55.4 °F - 24.8 °F 31% 30.12 in 10.0 mi WSW 8.1 mph - N/A   Clear
12:55 PM 57.2 °F - 24.8 °F 29% 30.12 in 10.0 mi WNW 11.5 mph - N/A   Clear
1:15 PM 57.2 °F - 24.8 °F 29% 30.12 in 10.0 mi WNW 10.4 mph - N/A   Clear
1:35 PM 57.2 °F - 24.8 °F 29% 30.12 in 10.0 mi WSW 9.2 mph - N/A   Clear
2:15 PM 59.0 °F - 24.8 °F 27% 30.09 in 10.0 mi South 4.6 mph - N/A   Clear
2:35 PM 59.0 °F - 24.8 °F 27% 30.09 in 10.0 mi WSW 5.8 mph 9.2 mph N/A   Clear
2:55 PM 60.8 °F - 23.0 °F 23% 30.08 in 10.0 mi West 5.8 mph - N/A   Clear
3:15 PM 60.8 °F - 23.0 °F 23% 30.07 in 10.0 mi West 6.9 mph - N/A   Clear
3:35 PM 60.8 °F - 23.0 °F 23% 30.06 in 10.0 mi West 5.8 mph - N/A   Clear
3:55 PM 60.8 °F - 24.8 °F 25% 30.06 in 10.0 mi WSW 3.5 mph - N/A   Clear
4:15 PM 60.8 °F - 23.0 °F 23% 30.06 in 10.0 mi Calm Calm - N/A   Clear
4:35 PM 62.6 °F - 24.8 °F 24% 30.06 in 10.0 mi NW 8.1 mph - N/A   Clear
4:55 PM 62.6 °F - 24.8 °F 24% 30.05 in 10.0 mi Calm Calm - N/A   Clear
5:15 PM 62.6 °F - 24.8 °F 24% 30.05 in 10.0 mi West 5.8 mph - N/A   Clear
5:35 PM 62.6 °F - 23.0 °F 22% 30.04 in 10.0 mi Calm Calm - N/A   Clear
5:55 PM 62.6 °F - 23.0 °F 22% 30.03 in 10.0 mi Calm Calm - N/A   Clear
6:15 PM 62.6 °F - 24.8 °F 24% 30.03 in 10.0 mi NNW 4.6 mph - N/A   Clear
6:35 PM 62.6 °F - 23.0 °F 22% 30.03 in 10.0 mi Calm Calm - N/A   Clear
6:55 PM 60.8 °F - 23.0 °F 23% 30.03 in 10.0 mi NW 3.5 mph - N/A   Clear
7:15 PM 60.8 °F - 24.8 °F 25% 30.04 in 10.0 mi Calm Calm - N/A   Clear
7:35 PM 60.8 °F - 23.0 °F 23% 30.04 in 10.0 mi Calm Calm - N/A   Clear
7:55 PM 59.0 °F - 23.0 °F 25% 30.04 in 10.0 mi Calm Calm - N/A   Clear
8:15 PM 57.2 °F - 24.8 °F 29% 30.04 in 10.0 mi ENE 3.5 mph - N/A   Clear
8:35 PM 55.4 °F - 24.8 °F 31% 30.03 in 10.0 mi ENE 4.6 mph - N/A   Clear
8:55 PM 55.4 °F - 24.8 °F 31% 30.04 in 10.0 mi ENE 4.6 mph - N/A   Clear
9:15 PM 53.6 °F - 26.6 °F 35% 30.03 in 10.0 mi ENE 4.6 mph - N/A   Clear
9:35 PM 53.6 °F - 24.8 °F 33% 30.03 in 10.0 mi East 3.5 mph - N/A   Clear
9:55 PM 51.8 °F - 26.6 °F 38% 30.03 in 10.0 mi ENE 4.6 mph - N/A   Clear
10:15 PM 50.0 °F - 26.6 °F 40% 30.03 in 10.0 mi ENE 4.6 mph - N/A   Clear
10:35 PM 48.2 °F - 26.6 °F 43% 30.03 in 10.0 mi East 4.6 mph - N/A   Clear
10:55 PM 48.2 °F - 26.6 °F 43% 30.03 in 10.0 mi East 4.6 mph - N/A   Clear
11:15 PM 48.2 °F - 26.6 °F 43% 30.03 in 10.0 mi East 4.6 mph - N/A   Clear
11:35 PM 48.2 °F - 26.6 °F 43% 30.03 in 10.0 mi East 3.5 mph - N/A   Clear
11:55 PM 48.2 °F - 26.6 °F 43% 30.03 in 10.0 mi East 4.6 mph - N/A   Clear